Regional Weather Roundup
Issued by NWS Pendleton, OR

Home | Current Version | Previous Version | Text Only | Print | Product List | Glossary On
Versions: 1 2 3 4 5 6 7 8 9 10 11 12 13 14 15 16 17 18 19 20 21 22 23 24 25 26 27 28 29 30 31 32 33 34 35 36 37 38 39 40 41 42 43 44 45 46 47 48 49 50
000
ASUS46 KPDT 251504
RWRPDT
PENDLETON REGIONAL WEATHER ROUNDUP
NATIONAL WEATHER SERVICE PENDLETON OREGON
800 AM PDT TUE APR 25 2017

NOTE: FAIR INDICATES FEW OR NO CLOUDS BELOW 12,000 FEET WITH NO
SIGNIFICANT WEATHER AND/OR OBSTRUCTIONS TO VISIBILITY.

# INDICATES UNOFFICIAL STATION AND DATA

WAZ520-251610-
EAST SLOPES OF WASHINGTON CASCADES

CITY            SKY/WX      TMP DP  RH  WIND    PRES   REMARKS
#CLE ELUM HS    N/A         42  35  76  W3      29.87R
#CLE ELUM LAKE  N/A         36  32  85  CALM    29.89R
#GLENWOOD       N/A         37  36  96  CALM    29.99R
#MANASTASH CYN  N/A         35  35  100 CALM    29.86R
#NELSON 3SW     N/A         40  33  76  CALM    30.12R
#NILE           N/A         38  36  92  CALM    29.20R
#TEANAWAY 4NE   N/A         36  34  92  NW5     N/A
#TROUT LAKE 1NE N/A         41  37  86  CALM    30.01R
#TROUT LAKE 1E  N/A         37  36  96  CALM    29.99R
$$

WAZ521-251610-
SIMCOE HIGHLANDS

CITY            SKY/WX      TMP DP  RH  WIND    PRES   REMARKS
#BICKLETON HS   N/A         43  39  86  SW15    29.89S WCI 36
#CENTERVILLE 1SWN/A         43  37  79  NW12    29.95R WCI 37
#GOLDENDALE 1NE N/A         42  34  73  SW3     N/A
#GOLDENDALE 4W  N/A         44  21  40  W9      30.01R
#GOODNOE HILLS  N/A         47  39  74  W14     N/A    WCI 41
#LYLE 6NE       N/A         42  39  89  SW7     29.97R
#PITT 4SE       N/A         40  36  85  W13     30.02R WCI 32
$$

WAZ026-251610-
KITTITAS VALLEY

CITY            SKY/WX      TMP DP  RH  WIND    PRES   REMARKS
ELLENSBURG AP   SUNNY       48  35  60  NW18    29.89R WCI 41
#ELLENSBURG CWU N/A         45  36  70  N10     29.83R
#ELLENSBURG 3NE N/A         45  37  73  N8      27.97R
#ELLENSBURG 13S N/A         39  36  89  CALM    N/A
#KITTITAS 4N    N/A         43  35  73  N1      29.90R
#KITTITAS 3S    N/A         45  39  79  W2      29.89R
#THORP 6N       N/A         40  35  82  NW14    29.92R WCI 32
$$

WAZ027-251610-
YAKIMA VALLEY

CITY            SKY/WX      TMP DP  RH  WIND    PRES   REMARKS
SUNNYSIDE AP    SUNNY       43  37  79  CALM    29.92R
YAKIMA AIRPORT  SUNNY       51  36  56  CALM    29.91R
YAKIMA-VAGABOND SUNNY       48  35  60  E6      29.88S
#DONALD 2NE     N/A         54  14  20  SW3     28.76R
#GRANDVIEW      N/A         47  36  65  NW1     29.94R
#MABTON         N/A         48  42  80  CALM    29.91R
#MOXEE 2E       N/A         47   0  14  S3      29.87F
#NACHES 2SW     N/A         45  36  70  W9      29.89R
#TERRACE HTS    N/A         44  36  73  NW1     29.88R
#TOPPENISH      N/A         48  37  65  CALM    29.83S
#WEST VALLEY    N/A         45  35  68  CALM    29.89R
#W YAKIMA       N/A         49  37  63  CALM    29.91R
#WHITE SWAN 5E  N/A         47  40  76  CALM    29.93R
#WILEY CITY 3W  N/A         48  33  56  CALM    29.87R
$$

WAZ028-251610-
LOWER COLUMBIA BASIN...WASHINGTON

CITY            SKY/WX      TMP DP  RH  WIND    PRES   REMARKS
PASCO           SUNNY       51  39  63  S13     29.93R
PROSSER AWOS    N/A         46  39  76  CALM    29.95R
RICHLAND AWOS   SUNNY       54  41  61  S8      29.92R
#BENTON CITY    N/A         49  39  68  CALM    29.83R
#CONNELL 5N     N/A         48  44  86  SE1     29.90R
#CONNELL 5NW    N/A         44  42  93  S6      29.85R
#ELTOPIA 6NW    N/A         45  42  89  CALM    28.88R
#KAHLOTUS       N/A         45  41  86  W10     29.90R
#KENNEWICK 3S   N/A         46  40  79  SW7     29.92R
#PATERSON       N/A         48  41  77  NW9     29.92R
#SAGEMOOR 2W    N/A         45  40  82  S5      29.78R
#TOUCHET 2S     N/A         47  41  79  SW15    29.92R WCI 41
#WEST PASCO     N/A         50  42  74  NE2     29.91R
$$

WAZ029-251610-
FOOTHILLS OF THE BLUES...WASHINGTON

CITY            SKY/WX      TMP DP  RH  WIND    PRES   REMARKS
WALLA WALLA AP  CLOUDY      48  41  77  S14     29.95R WCI 42
#CLYDE 6NW      N/A         45  42  89  S12     29.91S WCI 39
#DAYTON SCHOOL  N/A         45  35  68  S6      29.96R
#LOWDEN 2SE     N/A         49  42  77  NW1     29.92R
#PLEASANT VIEW 1N/A         42  40  93  S13     29.95R WCI 35
#PRESCOTT       N/A         47  43  86  SW3     29.93R
#WHITMAN COLLEGEN/A         47  41  79  S8      30.00R
#WAITSBURG 5S   N/A         43  40  89  S9      30.04R
#WAITSBURG 8N   N/A         43  N/A N/A S18     29.93R WCI 35
#WALLA WALLA 5E N/A         46  42  86  S8      N/A
#WHITMAN MISSIONN/A         49  42  77  S2      29.97R
$$

WAZ030-251610-
BLUE MOUNTAINS...WASHINGTON

CITY            SKY/WX      TMP DP  RH  WIND    PRES   REMARKS
#DIXIE 5SE      N/A         38  36  92  S8      29.84R
$$

ORZ009-041-WAZ024-251610-
COLUMBIA RIVER GORGE

CITY            SKY/WX      TMP DP  RH  WIND    PRES   REMARKS
HOOD RIVER AP   PTCLDY      46  41  83  W5      30.00R
THE DALLES AP   PTCLDY      51  41  68  W15     30.00R
#ARLINGTON AIRPON/A         47  40  76  W10     29.96R
#CELILO DOT     N/A         50  37  61  S5      N/A
#LYLE           N/A         49  43  80  W9      30.02R
#MOSIER 1S      N/A         46  33  60  CALM    29.97S
#MURDOCK        N/A         50  42  74  NW10    29.97R
#RUFUS DOT      N/A         49  38  66  W16     N/A    WCI 43
#SMITHVILLE     N/A         50  44  80  NW12    29.96R

$$

ORZ510-251610-
NORTH CENTRAL OREGON

CITY            SKY/WX      TMP DP  RH  WIND    PRES   REMARKS
#ANTELOPE       N/A         38  32  79  CALM    29.90R
#CHENOWITH 1W   N/A         41  39  93  NW17    N/A    WCI 33
#COW CYN RST AREN/A         38  32  79  S2      N/A
#DUFUR          N/A         41  37  86  W1      29.97R
#DUFUR 9E       N/A         40  36  85  W1      30.05R
#GRASS VALLEY 1SN/A         41  36  82  W10     30.11R
#KENT DOT       N/A         38  28  67  N10     N/A
#MAUPIN SCHOOL  N/A         47  37  68  S2      30.04R
#MORO SCHOOL    N/A         42  42  100 SW1     30.04S
#SHANIKO 5WSW   N/A         34  28  78  N8      N/A
#SHANIKO 4NW    N/A         35  30  82  SW2     29.93R
#TYGH VALLEY 2NEN/A         39  36  89  CALM    30.00R
#WAPANITIA AIRPON/A         44  37  76  W8      30.02R
#WASCO 5NE      N/A         44  39  82  SW6     29.97R
$$

ORZ511-251610-
CENTRAL OREGON

CITY            SKY/WX      TMP DP  RH  WIND    PRES   REMARKS
BEND AIRPORT    MOCLDY      41  28  59  SW17G24 29.97R WCI 33
MADRAS AIRPORT  PTCLDY      37  32  82  S8      30.01R
PRINEVILLE AP   PTCLDY      37  32  82  CALM    29.99R
REDMOND AIRPORT PTCLDY      39  29  67  SE6     29.99R
#ASHWOOD SCHOOL N/A         36  34  92  CALM    29.94R
#BEND 1SW       N/A         37  31  79  NW3     N/A
#BEND-AWBREY    N/A         37  31  79  NE7     30.01R
#BEND-KIM LN    N/A         35  32  89  CALM    29.96R
#CULVER         N/A         40  31  70  E2      29.94R
#CULVER 8W      N/A         43  29  57  CALM    29.98R
#LAKE BILLY CHINN/A         40  N/A N/A SE5     30.10R
#MADRAS 4S      N/A         41   2  19  S10     30.08R
#POWELL BUTTE   N/A         39  28  64  SW7     29.93R
#PRINEVILLE     N/A         36  32  85  CALM    30.12R
#PRINEVILLE 3N  N/A         34  31  89  N2      30.03R
#WARM SPRINGS   N/A         36  33  89  CALM    29.97R

$$


ORZ509-251610-
EAST SLOPES OF OREGON CASCADES

CITY            SKY/WX      TMP DP  RH  WIND    PRES   REMARKS
SISTERS AWOS    N/A         36  30  79  CALM    29.95R
#CAMP SHERMAN   N/A         37  30  75  CALM    30.08R
#LA PINE 4NW    N/A         32  28  85  CALM    30.09R
#LAVA BUTTE DOT N/A         33  26  75  CALM    N/A
#SISTERS 3N     N/A         36  30  79  CALM    30.00R
#TUMALO 3W      N/A         36  30  79  N3      29.89R
#WANOGA BUTTE D N/A         26  21  81  W8      N/A

$$

ORZ044-251610-
LOWER COLUMBIA BASIN...OREGON

CITY            SKY/WX      TMP DP  RH  WIND    PRES   REMARKS
HERMISTON       SUNNY       50  41  71  SW17    29.94R
#BOARDMAN SCHOOLN/A         49  41  74  S14     29.93R WCI 44
#BOARDMAN 8SW   N/A         49  42  77  SW15    29.93S WCI 43
#ECHO 8SW       N/A         49  41  74  W13     29.94S WCI 44
#I-84 EX 198 DOTN/A         46  37  71  E12     N/A    WCI 40
#IONE SCHOOL    N/A         47  29  49  SW14    29.96R WCI 41
$$

ORZ507-251610-
NORTHERN FOOTHILLS OF THE BLUES

CITY            SKY/WX      TMP DP  RH  WIND    PRES   REMARKS
PENDLETON AIRPT MOCLDY      47  38  71  VRB5    29.94R
#ADAMS 3WNW     N/A         45  41  86  SW6     29.96R
#ATHENA         N/A         45  41  86  SW1     29.98R
#CAYUSE         N/A         46  39  76  SW7     29.96
#HELIX SCHOOL   N/A         43  39  86  SW13    29.95R WCI 36
#HELIX 3N       N/A         42  39  89  S10     29.91R
#HOLDMAN 5SE    N/A         45  40  82  SW9     29.93R
#HOLDMAN 6E     N/A         43  39  86  S10     29.75S
#M-F FERNDALE   N/A         46  40  79  CALM    29.93R
#M-F GROVE ELEM N/A         47  38  71  S2      29.92R
#M-FREEWATER 5SEN/A         46  40  79  S2      29.95R
#PENDLETON DNTN N/A         47  40  76  CALM    29.95R
#PDT AQUATIC CTRN/A         47  38  71  CALM    29.96R
#PDT SUNRIDGE   N/A         47  40  76  CALM    29.97R
#PENDLETON 7NW  N/A         46  38  73  SW10    32.28S
#PILOT ROCK 1S  N/A         46  35  65  S7      29.95R
#PILOT ROCK     N/A         47  40  76  W6      29.96R
#TUTUILLA       N/A         46  41  83  S1      29.96R
#UMAPINE 2E     N/A         48  42  80  SW5     29.92R
#WESTON SCHOOL  N/A         44  37  76  W9      29.94S

$$

ORZ508-251610-
SOUTHERN FOOTHILLS OF THE BLUES

CITY            SKY/WX      TMP DP  RH  WIND    PRES   REMARKS
LEXINGTON       SUNNY       48  37  65  S5      29.97S
#AJAX           N/A         41  29  62  S7      30.10R
#CONDON SCHOOL  N/A          0  -78  1  CALM    29.89R
#CONDON 5W      N/A         37  31  79  SW14    29.89R WCI 28
#HEPPNER EOC    N/A         45  35  68  SW6     29.89S
#LEXINGTON 2SE  N/A         49  38  66  CALM    29.92S
#MIKKALO        N/A         45  35  68  W8      30.05R
#OLEX 4N        N/A         46  40  79  SW16    29.93R WCI 39
#RUGGS 5NE      N/A         44  35  70  SW7     30.07S
#RUGGS 2SW      N/A         42  34  73  W12     29.97S WCI 35

$$

ORZ502-503-251610-
BLUE MOUNTAINS

CITY            SKY/WX      TMP DP  RH  WIND    PRES   REMARKS
MEACHAM         CLOUDY      37  32  82  CALM    29.91R
#BATTLE MTN DOT N/A         33  32  96  CALM    N/A
#GREENHORN 9SW  N/A         36  35  96  CALM    26.14R
#HARDMAN 10S    N/A         36  32  85  CALM    30.10R
#LADD CYN SMT   N/A         40  35  82  NW7     N/A
#LADD CREEK ODOTN/A         39  36  89  NE6     N/A
#LONG CREEK HS  N/A         38  35  89  CALM    N/A
#N POWDER DOT   N/A         40  36  85  N2      N/A
#PIKES PEAK     N/A         35  34  96  N16     27.99S WCI 25
#TROY SCHOOL    N/A         48  40  74  CALM    29.78R
#UKIAH          N/A         37  35  92  S5      29.90R
#WESTON 4E      N/A         37  36  96  S7      29.93R
$$

ORZ505-251610-
JOHN DAY BASIN

CITY            SKY/WX      TMP DP  RH  WIND    PRES   REMARKS
JOHN DAY        CLOUDY      40  33  76  CALM    29.96R
#ANTELOPE 9ESE  N/A         45  36  70  SW1     N/A
#DAYVILLE SCHOOLN/A         42  35  76  CALM    29.93S
#MITCHELL       N/A         41  39  93  CALM    30.10S
#MITCHELL 8NW   N/A         41  30  65  SW1     30.00R
#MONUMENT HS    N/A         44  34  68  CALM    29.93R
#MT. VERNON 5SE N/A         36  32  85  CALM    29.90R
#SPRAY SCHOOL   N/A         43  N/A N/A CALM    N/A
$$

ORZ506-251610-
OCHOCO AND JOHN DAY HIGHLANDS

CITY            SKY/WX      TMP DP  RH  WIND    PRES   REMARKS
#HORSE RIDGE DO N/A         27  21  78  CALM    N/A
#PAULINA SCHOOL N/A         36  31  82  SW3     N/A
#PINE MTN OBS   N/A         28  22  78  SE2     N/A
#SENECA 9NW     N/A         33  31  92  CALM    29.98R
$$

ORZ049-251610-
GRANDE RONDE VALLEY

CITY            SKY/WX      TMP DP  RH  WIND    PRES   REMARKS
LA GRANDE       CLOUDY      43  36  76  N8      29.93R
#COVE SCHOOL    N/A         41  36  82  CALM    29.96R
#COVE 6NW       N/A         42  38  86  SW3     29.96R
#ELGIN 3N       N/A         41  35  79  CALM    29.91R
#ELGIN 1E       N/A         42  37  82  CALM    N/A
#IMBLER SCHOOL  N/A         41  36  82  CALM    29.90R
#ISLAND CITY 4N N/A         45  44  96  CALM    30.03S
#UNION 1S       N/A         42  38  86  N1      29.96R
$$

ORZ050-251610-
WALLOWA COUNTY

CITY            SKY/WX      TMP DP  RH  WIND    PRES   REMARKS
#IMNAHA SCHOOL  N/A         47  40  76  N1      29.93R
#IMNAHA 10S     N/A         40  38  92  CALM    29.92R
#JOSEPH 3N      N/A         37  31  79  CALM    29.95R
#JOSEPH 3W      N/A         39  34  82  E5      29.75R
#LOSTINE        N/A         37  34  89  CALM    29.75R
#LOSTINE 3SE    N/A         37  34  89  SE3     29.96R
#MT HOWARD 8000 N/A         24  21  88  CALM    29.81R
#PROMISE 1S     N/A         38  34  85  SW3     30.04R
#WALLOWA SCHOOL N/A         40  35  82  CALM    29.90R



$$



USA.gov is the U.S. government's official web portal to all federal, state and local government web resources and services.